Basenerd Banner
Loading games...
Chandler Simpson
Chandler Simpson
Tampa Bay Rays • Outfielder
Age 25 • 5' 11" • 170 lb
Bats: L • Throws: R
MLB Debut: 2025-04-19
Born: Atlanta , GA • USA
Draft: 2022
2026 Stats
G
129
AB
483
H
150
HR
0
RBI
31
R
53
SB
38
AVG
.311
OBP
.339
SLG
.364
OPS
.703
Career Stats
G
238
AB
897
H
272
HR
0
RBI
57
R
106
SB
82
AVG
.303
OBP
.333
SLG
.356
OPS
.689
Year-by-Year Hitting
Year Team GPAABH HRRBISB AVGOBPSLGOPSAwards
2025 TB 109 441 414 122 26 44 .295 .326 .345 .671
2026 TB 129 522 483 150 31 38 .311 .339 .364 .703
Spring Training
Hitting
YearTeamGPAABHHRRBISBAVGOBPSLGOPS
2023 TB 11 .0001.000.0001.000
2024 TB 121 2 .000.000.000.000
2025 TB 1127256 3 .240.296.240.536
2026 TB 14363312 134 .364.382.455.837
Game Logs
Season selector loads one year at a time.
Hitting
Date Opponent AB H 2B 3B HR RBI R BB SO
2026-08-31 vs NYM 4 2 0 0 0 1 0 0 0
2026-08-30 vs SD 3 0 0 0 0 0 0 1 0
2026-08-29 vs SD 4 2 0 0 0 1 0 0 0
2026-08-28 vs SD 4 2 1 0 0 0 2 0 0
2026-08-26 @ DET 3 1 0 0 0 0 1 0 0
2026-08-25 @ DET 3 0 0 0 0 0 0 1 0
2026-08-24 @ DET 4 2 0 0 0 1 0 0 0
2026-08-23 @ BAL 3 2 0 0 0 1 0 1 0
2026-08-22 @ BAL 4 1 0 0 0 0 0 0 0
2026-08-21 @ BAL 4 1 0 0 0 1 0 0 1
2026-08-20 vs TOR 4 0 0 0 0 0 1 0 0
2026-08-19 vs TOR 4 1 0 0 0 1 0 0 1
2026-08-18 vs TOR 5 2 0 0 0 0 0 0 0
2026-08-17 vs BAL 4 1 0 0 0 0 0 0 0
2026-08-16 vs BAL 4 2 1 0 0 0 0 0 0
2026-08-15 vs BAL 5 2 0 0 0 0 0 0 0
2026-08-14 vs BAL 4 1 0 0 0 0 0 1 1
2026-08-11 @ ATH 4 2 0 0 0 1 0 0 0
2026-08-10 @ ATH 5 2 0 0 0 1 1 0 0
2026-08-09 @ SEA 5 4 1 0 0 0 1 0 0
2026-08-08 @ SEA 4 2 0 0 0 0 1 0 0
2026-08-07 @ SEA 4 0 0 0 0 0 0 0 0
2026-08-05 @ COL 4 1 0 0 0 1 0 0 0
2026-08-04 @ COL 5 2 0 0 0 0 0 0 0
2026-08-03 @ COL 4 2 0 0 0 2 1 0 1
2026-08-02 vs CWS 3 3 0 0 0 0 0 0 0
2026-08-01 vs CWS 3 1 0 0 0 0 0 0 0
2026-07-31 vs CWS 4 1 0 0 0 0 0 0 1
2026-07-29 vs TEX 3 0 0 0 0 0 0 0 1
2026-07-28 vs TEX 4 0 0 0 0 0 0 0 0
2026-07-26 vs CLE 3 2 0 0 0 0 1 0 0
2026-07-25 vs CLE 4 2 0 0 0 0 0 0 1
2026-07-24 vs CLE 4 2 1 0 0 1 1 0 0
2026-07-23 @ TOR 3 0 0 0 0 0 0 0 0
2026-07-22 @ TOR 2 1 0 0 0 1 1 1 0
2026-07-21 @ TOR 5 4 0 0 0 1 1 0 0
2026-07-20 @ TOR 3 1 0 0 0 0 0 1 1
2026-07-19 @ BOS 4 2 1 0 0 0 0 0 0
2026-07-18 @ BOS 4 2 1 0 0 0 2 0 1
2026-07-17 @ BOS 3 0 0 0 0 0 0 0 0
2026-07-12 vs SEA 4 0 0 0 0 0 0 0 0
2026-07-11 vs SEA 4 1 0 0 0 0 1 0 0
2026-07-10 vs SEA 4 3 0 0 0 1 1 0 0
2026-07-09 vs NYY 4 2 0 2 0 0 1 0 0
2026-07-08 vs NYY 4 1 0 0 0 0 0 0 0
2026-07-07 vs NYY 4 0 0 0 0 0 0 0 0
2026-07-06 vs NYY 3 1 0 0 0 0 1 0 0
2026-07-05 @ HOU 4 1 0 0 0 0 0 0 1
2026-07-02 @ KC 4 3 0 0 0 0 2 0 0
2026-07-01 @ KC 4 2 1 0 0 0 0 0 0
2026-06-30 @ KC 3 1 0 0 0 0 0 1 0
2026-06-28 vs AZ 4 1 1 0 0 0 0 0 0
2026-06-27 vs AZ 4 1 0 0 0 0 0 0 1
2026-06-25 vs KC 5 1 1 0 0 1 0 0 0
2026-06-24 vs KC 2 1 0 0 0 0 0 1 0
2026-06-23 vs KC 2 0 0 0 0 0 1 2 0
2026-06-22 vs KC 4 2 1 0 0 0 0 0 0
2026-06-21 vs WSH 4 2 0 0 0 0 0 0 1
2026-06-20 vs WSH 4 2 0 0 0 1 0 0 0
2026-06-19 vs WSH 4 1 0 0 0 0 0 0 0
2026-06-17 @ LAD 4 0 0 0 0 0 0 0 0
2026-06-16 @ LAD 3 0 0 0 0 0 0 0 0
2026-06-15 @ LAD 0 0 0 0 0 0 0 0 0
2026-06-14 @ LAA 5 1 0 0 0 2 0 0 1
2026-06-13 @ LAA 4 1 0 0 0 0 0 0 0
2026-06-12 @ LAA 3 0 0 0 0 0 1 1 0
2026-06-10 vs BOS 0 0 0 0 0 0 1 0 0
2026-06-09 vs BOS 4 0 0 0 0 0 0 0 2
2026-06-08 vs BOS 0 0 0 0 0 0 0 0 0
2026-06-06 @ MIA 0 0 0 0 0 0 0 1 0
2026-06-05 @ MIA 2 0 0 0 0 0 0 0 0
2026-06-03 vs DET 4 0 0 0 0 0 0 0 1
2026-06-02 vs DET 4 0 0 0 0 0 0 0 1
2026-06-01 vs DET 2 1 0 0 0 0 0 0 0
2026-05-31 vs LAA 5 0 0 0 0 0 1 0 0
2026-05-30 vs LAA 4 0 0 0 0 0 0 1 2
2026-05-29 vs LAA 4 2 0 0 0 0 1 0 0
2026-05-27 @ BAL 4 1 0 0 0 0 0 1 0
2026-05-26 @ BAL 4 2 1 0 0 0 1 0 1
2026-05-25 @ BAL 6 3 1 0 0 0 1 0 1
2026-05-24 @ NYY 4 0 0 0 0 0 0 0 1
2026-05-22 @ NYY 5 2 0 0 0 0 1 0 0
2026-05-20 vs BAL 4 0 0 0 0 0 1 0 1
2026-05-19 vs BAL 4 1 0 0 0 0 0 0 1
2026-05-18 vs BAL 4 1 1 0 0 0 0 1 0
2026-05-17 vs MIA 4 0 0 0 0 0 0 0 1
2026-05-16 vs MIA 4 1 0 0 0 1 1 1 0
2026-05-15 vs MIA 4 2 0 1 0 0 0 0 0
2026-05-13 @ TOR 4 0 0 0 0 0 1 1 1
2026-05-11 @ TOR 5 3 0 0 0 0 3 0 0
2026-05-10 @ BOS 4 0 0 0 0 0 1 0 0
2026-05-08 @ BOS 3 0 0 0 0 0 0 0 1
2026-05-07 @ BOS 2 2 0 1 0 3 0 0 0
2026-05-06 vs TOR 4 1 0 0 0 1 0 0 0
2026-05-05 vs TOR 4 2 0 0 0 0 1 0 0
2026-05-04 vs TOR 4 1 0 0 0 0 1 0 1
2026-05-03 vs SF 5 0 0 0 0 0 1 0 2
2026-05-02 vs SF 4 1 0 0 0 0 1 0 1
2026-05-01 vs SF 3 1 0 0 0 1 0 0 1
2026-04-29 @ CLE 4 2 0 0 0 0 0 0 0
2026-04-28 @ CLE 4 1 1 0 0 0 0 1 0
2026-04-27 @ CLE 4 0 0 0 0 0 0 0 0
2026-04-26 vs MIN 4 3 0 0 0 0 1 0 0
2026-04-25 vs MIN 3 0 0 0 0 0 0 1 3
2026-04-24 vs MIN 3 0 0 0 0 1 1 1 0
2026-04-22 vs CIN 3 1 0 0 0 1 0 0 0
2026-04-21 vs CIN 4 0 0 0 0 0 1 1 0
2026-04-20 vs CIN 5 2 0 0 0 0 1 0 0
2026-04-19 @ PIT 4 1 0 0 0 0 0 0 1
2026-04-18 @ PIT 7 2 0 0 0 0 0 0 1
2026-04-17 @ PIT 4 1 0 0 0 0 1 0 0
2026-04-16 @ CWS 6 0 0 0 0 0 0 0 1
2026-04-15 @ CWS 4 0 0 0 0 0 0 0 1
2026-04-14 @ CWS 3 1 0 0 0 0 0 0 0
2026-04-12 vs NYY 4 3 0 1 0 1 2 0 0
2026-04-11 vs NYY 1 1 0 0 0 0 2 0 0
2026-04-10 vs NYY 5 1 0 0 0 2 0 0 1
2026-04-08 vs CHC 4 1 0 0 0 0 0 0 0
2026-04-07 vs CHC 4 2 0 0 0 0 0 0 0
2026-04-06 vs CHC 4 2 0 0 0 0 1 0 0
2026-04-05 @ MIN 5 1 0 0 0 0 0 0 0
2026-04-04 @ MIN 5 2 0 0 0 0 1 0 0
2026-04-03 @ MIN 3 0 0 0 0 0 0 1 0
2026-04-01 @ MIL 3 2 0 0 0 0 0 1 0
2026-03-31 @ MIL 3 2 0 1 0 0 0 0 0
2026-03-30 @ MIL 4 1 0 0 0 0 0 0 1
2026-03-29 @ STL 4 2 0 0 0 0 1 1 0
2026-03-28 @ STL 4 2 0 0 0 0 1 0 1
2026-03-26 @ STL 3 1 0 0 0 1 1 0 0
Transactions
Entire history • newest first.
2026-04-16
LF Chandler Simpson changed number to 14.
2026-04-15
LF Chandler Simpson changed number to 42.
2025-06-24
Tampa Bay Rays recalled CF Chandler Simpson from Durham Bulls.
2025-05-30
Tampa Bay Rays optioned CF Chandler Simpson to Durham Bulls.
2025-04-18
Tampa Bay Rays selected the contract of SS Chandler Simpson from Durham Bulls.
2025-01-30
Tampa Bay Rays invited non-roster SS Chandler Simpson to spring training.
2024-03-26
SS Chandler Simpson assigned to Tampa Bay Rays.
2023-03-27
SS Chandler Simpson roster status changed by Tampa Bay Rays.
2023-03-27
SS Chandler Simpson assigned to Tampa Bay Rays.
2022-08-08
Tampa Bay Rays signed SS Chandler Simpson.
Scouting Report
Statcast-style percentiles • Basenerd theme
Season 2026
No Statcast percentile data available.
Spray Chart
Hits only • Stadium overlay
1B 2B 3B HR
MLBAM-style coords scaled into stadium viewBox. Home plate baseline ≈ (125, 199). Stadium SVG: rays.svg.
Results by Pitch Type
Pitch # Usage% Zone% Whiff% AVG HardHit%
4-Seam Fastball 648 38.6% 56.8% 3.6% .339 14.7%
Sinker 278 16.6% 57.6% 3.4% .340 13.4%
Slider 182 10.8% 45.1% 19.5% .292 20.5%
Changeup 156 9.3% 41.0% 18.9% .200 0.0%
Cutter 119 7.1% 48.7% 11.9% .259 16.0%
Curveball 101 6.0% 46.5% 25.0% .353 14.3%
Sweeper 93 5.5% 39.8% 17.9% .292 10.5%
Splitter 62 3.7% 38.7% 6.7% .278 5.6%
Knuckle Curve 35 2.1% 42.9% 11.1% .250 20.0%
Slurve 3 0.2% 100.0% 0.0% .000 0.0%
Eephus 1 0.1% 0.0% 0.0% .000 0.0%
Total 1678 100.0% 51.1% 8.9% .310 13.1%
Results by Pitch Category
Category # Usage% Zone% Whiff% AVG HardHit%
Fastball 1045 62.3% 56.1% 4.5% .332 14.4%
Breaking 414 24.7% 44.4% 19.4% .296 16.7%
Offspeed 219 13.1% 40.2% 15.2% .219 1.7%
Total 1678 100.0% 51.1% 8.9% .310 13.1%
MLB Avg - - 50.6% 25.3% .245 41.0%
More